Regional Weather Roundup
Issued by NWS

Home | Current Version | Previous Version | Text Only | Print | Product List | Glossary On
Versions: 1 2 3 4 5 6 7 8 9 10 11 12 13 14 15 16 17 18 19 20 21 22 23 24 25 26 27 28 29 30 31 32 33 34 35 36 37 38 39 40 41 42 43 44 45 46 47 48 49 50
000
ASUS44 KFWD 261315
RWRTX
NORTH TEXAS HOURLY WEATHER ROUNDUP
NATIONAL WEATHER SERVICE FORT WORTH TX
800 AM CDT SUN APR 26 2015

NOTE: "FAIR" INDICATES FEW OR NO CLOUDS BELOW 12,000 FEET WITH NO
SIGNIFICANT WEATHER AND/OR OBSTRUCTIONS TO VISIBILITY.

TXZ118-119-261400-
DALLAS/FORT WORTH METROPLEX

CITY           SKY/WX    TMP DP  RH WIND       PRES   REMARKS
DFW AIRPORT    MOSUNNY   63  59  87 S8        29.68R
DALLAS LOVE    MOSUNNY   65  60  84 S5        29.70R
FTW MEACHAM    SUNNY     63  57  81 S5        29.68R
DAL-EXECUTIVE  SUNNY     68  63  84 VRB7      29.69R
FTW-ALLIANCE   MOSUNNY   64  57  78 SW3       29.68R
FTW-NAS-JRB    MOSUNNY   65  55  70 SW5       29.72R
FTW-SPINKS     SUNNY     64  59  82 S7        29.72R
ARLINGTON      SUNNY     66  60  81 S7        29.70R
GRAND PRAIRIE  SUNNY     64  63  94 S9        29.71R
ADDISON        SUNNY     68  59  73 S7        29.70R
MESQUITE       CLOUDY    63  63 100 S8        29.71R FOG
LANCASTER      CLOUDY    66  64  94 SW8       29.71R FOG
$$

TXZ091>094-102>105-117-120-121-131>134-261400-
NORTH CENTRAL TEXAS

CITY           SKY/WX    TMP DP  RH WIND       PRES   REMARKS
SHRMAN/DENISON SUNNY     64  58  81 CALM      29.71R
GAINESVILLE    SUNNY     57  55  92 CALM      29.70R
BOWIE          SUNNY     58  53  84 CALM      29.69R
BRIDGEPORT     SUNNY     53  53 100 CALM      29.70S
DECATUR        SUNNY     66  49  55 SW6       29.70R
DENTON         SUNNY     59  55  87 CALM      29.69R
MCKINNEY       SUNNY     61  59  93 S5        29.69R
GREENVILLE     SUNNY     63  61  94 CALM      29.70R
ROCKWALL       MOSUNNY   65  63  96 S10G17    29.69R
TERRELL        FOG       70  66  87 S12       29.72R VSB 1
WAXAHACHIE     MOSUNNY   66  66 100 CALM      29.73R
CLEBURNE       SUNNY     63  63 100 S6        29.74R
GRANBURY       PTSUNNY   60  56  87 CALM      29.72S
$$

TXZ083>090-098>101-113>116-127>130-139>142-154-155-261400-
WESTERN NORTH TEXAS

CITY           SKY/WX    TMP DP  RH WIND       PRES   REMARKS
WICHITA FALLS  SUNNY     57  50  77 N5        29.69R
WF-KICKAPOO    SUNNY     59  51  74 N5        29.69R
VERNON         SUNNY     55  44  68 NE3       29.69R
ABILENE        SUNNY     63  46  54 S3        29.71S
ABILENE-DYESS  SUNNY     59  50  70 S7        29.69S
BRECKENRIDGE   SUNNY     62  46  55 S7        29.70R
GRAHAM         SUNNY     58  51  79 CALM      29.69R
MINERAL WELLS  SUNNY     58  54  86 CALM      29.70R
STEPHENVILLE   SUNNY     62  52  70 S3        29.75R
COMANCHE       SUNNY     65  55  69 S7        29.72R
BROWNWOOD      SUNNY     55  52  88 CALM      29.73S
COLEMAN        SUNNY     57  52  81 CALM      29.73S
BRADY          SUNNY     59  57  94 SE3       29.72S
$$

TXZ143>147-156>162-174-175-261400-
CENTRAL TEXAS

CITY           SKY/WX    TMP DP  RH WIND       PRES   REMARKS
WACO           MOSUNNY   70  67  90 S7        29.72R
WACO-TSTC      MOSUNNY   72  68  88 S5        29.73R
WACO-MCGREGOR  MOSUNNY   68  63  83 S7        29.73S
HILLSBORO      MOSUNNY   68  66  92 S12       29.73R FOG
CORSICANA      CLOUDY    70  68  93 SW12      29.74R FOG
MEXIA          CLOUDY    69  68  96 SE14      29.73R FOG
HEARNE         CLOUDY    69  67  93 S5        29.77R
CAMERON        CLOUDY    70  67  92 S8        29.73S FOG
TEMPLE         PTSUNNY   68  63  83 E3        29.72S
KILLEEN        PTSUNNY   69  67  94 SE2       29.72R
KILLEEN-SKYLRK PTSUNNY   70  64  83 CALM      29.73S
FORT HOOD      PTSUNNY   68  67  94 SW2       29.72R
GATESVILLE     MOSUNNY   66  66 100 CALM      29.75S FOG
LAMPASAS       CLOUDY    62  61  95 N3        29.72S
$$

TXZ095>097-106>112-122>126-135>138-148>153-164>167-261400-
EAST TEXAS

CITY           SKY/WX    TMP DP  RH WIND       PRES   REMARKS
PARIS          SUNNY     61  54  77 MISG      29.72R
SULPHUR SPRNGS SUNNY     65  62  91 CALM      29.73R
MOUNT PLEASANT SUNNY     61  61 100 CALM      29.72S
GILMER         MOSUNNY   64  61  93 CALM      29.72R
TYLER          FOG       69  67  93 SW12      29.72R VSB 1/2
LONGVIEW       FOG       66  64  93 CALM      29.72R VSB 1/2
MARSHALL       CLOUDY    68  66  93 CALM      29.74S VSB<1/4
ATHENS         CLOUDY    66  66 100 SW6       29.73R FOG
PALESTINE      CLOUDY    68  67  94 S7        29.76R
JACKSONVILLE   DRZL/FOG  67  66  97 SW7       29.75R VSB 3/4
HENDERSON      CLOUDY    67  67 100 SW3       29.74R VSB 3/4
NACOGDOCHES    CLOUDY    66  64  94 SW8       29.74R VSB 1/4
LUFKIN         CLOUDY    70  67  90 S7        29.75R FOG
$$

SUPPLEMENTAL OBSERVATIONS (CENTRAL)

CITY           SKY/WX    TMP DP  RH WIND       PRES   REMARKS
LAKE TEXOMA      N/A     61  52  72 N1          N/A
CADDO GRASSLND   N/A     61  59  94 S1          N/A
PAT MAYSE LAKE   N/A     61  59  94 CALM        N/A
GREENVILLE       N/A     66  61  82 S6          N/A
LAKE LIMESTONE   N/A     70  64  83 S2          N/A
MCGREGOR         N/A     70  66  88 SW3         N/A
TEMPLE           N/A     70  68  94 SE7         N/A
$$

SUPPLEMENTAL OBSERVATIONS (WEST)

CITY           SKY/WX    TMP DP  RH WIND       PRES   REMARKS
MILLERS CREEK    N/A     55  48  76 SW3         N/A
POSSUM KINGDOM   N/A     68  46  45 S6          N/A
LBJ GRASSLAND    N/A     64  52  63 SE3         N/A
GRANBURY         N/A     63  57  82 E2          N/A
COMANCHE         N/A     68  55  64 S5G16       N/A
HAMBY            N/A     59  46  63 SE5         N/A
COLORADO BEND    N/A     64  61  88 E2          N/A
$$

SUPPLEMENTAL OBSERVATIONS (EAST)

CITY           SKY/WX    TMP DP  RH WIND       PRES   REMARKS
CLARKSVILLE      N/A     66  61  82 S2          N/A
TEXARKANA        N/A     61  57  88 N1          N/A
LINDEN           N/A     64  59  82 CALM        N/A
CADDO LAKE       N/A    N/A N/A N/A CALM        N/A
GILMER           N/A     64  61  88 CALM        N/A
HENDERSON        N/A     66  64  94 S5          N/A
LUFKIN           N/A     68  66  94 MISG        N/A
N SABINE NF      N/A     70  68  94 MISG        N/A
S SABINE NF      N/A     66  64  94 CALM        N/A
$$

SUPPLEMENTAL OBSERVATIONS ARE A COLLECTION OF AUTOMATED INSTRUMENTS
THAT ARE MAINTAINED BY A VARIETY OF FEDERAL AND STATE AGENCIES.
CERTAIN ELEMENTS...SUCH AS HUMIDITY VALUES AND SUSTAINED WIND
SPEEDS...MAY BE APPROXIMATED.




USA.gov is the U.S. government's official web portal to all federal, state and local government web resources and services.